Zurück zum Katalog

STARLINK-37993

AktivKommunikationSSO
NORAD 69976·PAYLOAD·🇺🇸 United States

Gestartet Jul 11, 2026 von Vandenberg Space Force Base

Loading…

Nächste Überflüge (nächste 24 Stunden)

TLE

AktuellSource: CelesTrak SupGP

Epoche: Sep 14, 2026, 23:21 UTC

1 69976C 26159B   26257.97340278 -.00703970  00000+0 -12819-1 0  2578
2 69976  97.2849  99.6960 0001694  94.8896  91.5753 15.49881141    14

Verfolge STARLINK-37993 in Echtzeit mit AllMySat

Download on the App Store